This is the latest recevied weather packets stored in our database for station/object WA0LM. If no packets are shown the sender has not sent any weather packets the latest 10 day(s).
| Time | Temp. | Humidity | Pressure | Rain* | Wind** | Luminosity | Snow |
|---|---|---|---|---|---|---|---|
| 1777835163 | 16.67° C | 40% | 1005.5 hPa | 0 mm | - | 496 W/m² | - |
| 1777834860 | 16.67° C | 37% | 1005.4 hPa | 0 mm | - | 430 W/m² | - |
| 1777834557 | 16.67° C | 37% | 1005.3 hPa | 0 mm | - | 619 W/m² | - |
| 1777834256 | 16.67° C | 36% | 1005.4 hPa | 0 mm | - | 461 W/m² | - |
| 1777833952 | 16.67° C | 39% | 1005.6 hPa | 0 mm | - | 640 W/m² | - |
| 1777833649 | 16.67° C | 37% | 1005.6 hPa | 0 mm | - | 662 W/m² | - |
| 1777833346 | 16.67° C | 41% | 1005.8 hPa | 0 mm | - | 470 W/m² | - |
| 1777833043 | 16.67° C | 34% | 1005.9 hPa | 0 mm | - | 714 W/m² | - |
| 1777832741 | 16.11° C | 41% | 1006.1 hPa | 0 mm | - | 774 W/m² | - |
| 1777832439 | 16.11° C | 35% | 1006 hPa | 0 mm | - | 793 W/m² | - |
| 1777832136 | 16.11° C | 37% | 1006.1 hPa | 0 mm | - | 758 W/m² | - |
| 1777831832 | 15.56° C | 37% | 1006.5 hPa | 0 mm | - | 791 W/m² | - |
| 1777831529 | 15.56° C | 36% | 1006.6 hPa | 0 mm | - | 760 W/m² | - |
| 1777831227 | 16.11° C | 38% | 1006.2 hPa | 0 mm | - | 682 W/m² | - |
| 1777830924 | 15.56° C | 36% | 1006.5 hPa | 0 mm | - | 527 W/m² | - |
| 1777830621 | 15.56° C | 38% | 1006.5 hPa | 0 mm | - | 606 W/m² | - |
| 1777830318 | 15.56° C | 35% | 1006.6 hPa | 0 mm | - | 784 W/m² | - |
| 1777830014 | 15.56° C | 36% | 1006.6 hPa | 0 mm | - | 781 W/m² | - |
| 1777829709 | 15.56° C | 38% | 1006.7 hPa | 0 mm | - | 779 W/m² | - |
| 1777829406 | 15.56° C | 40% | 1006.5 hPa | 0 mm | - | 776 W/m² | - |
| 1777829104 | 15.56° C | 35% | 1006.6 hPa | 0 mm | - | 773 W/m² | - |
| 1777828800 | 15.56° C | 36% | 1006.8 hPa | 0 mm | - | 772 W/m² | - |
| 1777828497 | 15.56° C | 40% | 1006.7 hPa | 0 mm | - | 768 W/m² | - |
| 1777828194 | 15.56° C | 36% | 1006.6 hPa | 0 mm | - | 763 W/m² | - |
| 1777827890 | 15.56° C | 38% | 1006.9 hPa | 0 mm | - | 759 W/m² | - |
* Rain latest hour (hover to see other rain measurements)
** Current wind speed in m/s (hover to see current wind gust speed)